Flag for U.S.A. Weather past 2 weeks in St. Augustine, Florida, U.S.A.

Now
65 °F

Passing clouds.


Feels Like: 65 °F
Forecast: 63 / 78 °F
Wind: 7 mph from West

Location: St. Augustine Airport

Current Time: Apr 1, 2015 at 5:00:47 AM

Latest Report: Apr 1, 2015 at 3:58 AM


Visibility: 10 mi

Pressure: 30.03 "Hg

Humidity: 94%

Dew point: 63 °F

Location of St. AugustineLocation

Historic Weather in St. Augustine — Graph

°F

St. Augustine temperature yesterday

Maximum temperature yesterday: 81 °F (at 2:58 PM)
Minimum temperature yesterday: 60 °F (at 2:58 AM)
Average temperature yesterday: 71 °F

Past Weeks' High & Low Weather Summary

 TemperatureHumidityPressure
High86 °F (Mar 17, 2:58 PM)100% (Mar 20, 5:04 AM)30.41 "Hg (Mar 20, 5:04 AM)
Low45 °F (Mar 29, 1:58 AM)27% (Mar 28, 4:58 PM)29.73 "Hg (Mar 27, 4:58 PM)
Average65 °F83%30.06 "Hg
* Reported Mar 17 3:58 AM — Apr 1 3:58 AM, St. Augustine, Weather by CustomWeather, © 2015

Note: Actual official high and low records may vary slightly from our data, if they occured in-between our weather recording intervals... More about our weather records

Advertising

St. Augustine weather history for previous 24 hours

 ConditionsComfort  
Time TempWeatherWind HumidityBarometerVisibility
3:58 AM
Wed, Apr 1
65 °FPassing clouds.7 mph94%30.03 "Hg10 mi
2:58 AM65 °FClear.5 mph91%30.05 "Hg10 mi
1:58 AM66 °FClear.7 mph87%30.06 "Hg10 mi
12:58 AM67 °FClear.8 mph85%30.08 "Hg10 mi
11:58 PM
Tue, Mar 31
68 °FClear.9 mph78%30.06 "Hg10 mi
10:58 PM70 °FClear.7 mph76%30.06 "Hg10 mi
9:58 PM72 °FClear.8 mph71%30.06 "Hg10 mi
8:58 PM74 °FPassing clouds.10 mph67%30.03 "Hg10 mi
7:58 PM77 °FScattered clouds.3 mph58%30.01 "Hg10 mi
6:58 PM78 °FPartly sunny.No wind52%30.01 "Hg10 mi
5:58 PM80 °FSunny.8 mph45%30.01 "Hg10 mi
4:58 PM80 °FBroken clouds.9 mph49%30.01 "Hg10 mi
3:58 PM80 °FPartly sunny.8 mph49%30.03 "Hg10 mi
2:58 PM81 °FFog.12 mph51%30.06 "Hg10 mi
2:02 PM79 °FFog.10 mph58%30.09 "Hg10 mi
1:58 PM78 °FFog.9 mph60%30.09 "Hg7 mi
1:03 PM77 °FFog.10 mph61%30.11 "Hg7 mi
12:58 PM77 °FFog.7 mph62%30.11 "Hg5 mi
11:58 AM75 °FFog.10 mph69%30.13 "Hg5 mi
10:58 AM72 °FFog.9 mph76%30.15 "Hg5 mi
10:02 AM70 °FFog.7 mph78%30.14 "Hg5 mi
9:58 AM69 °FSunny.8 mph81%30.14 "Hg5 mi
8:58 AM65 °FSunny.8 mph87%30.14 "Hg5 mi
7:58 AM61 °FClear.8 mph93%30.13 "Hg10 mi
6:58 AM60 °FClear.7 mph96%30.12 "Hg10 mi
5:58 AM60 °FClear.7 mph93%30.11 "Hg10 mi
Weather by CustomWeather, © 2015

See weather overviewHow to use our weather pages